Location: Montreal
(45.5087°N, 73.5540°W)
Time: 21:48:12
(UTC-05:00)

AAUSAT CUBESAT 2 - Visible Passes

Search period start: 14 November 2019 00:00
Search period end: 24 November 2019 00:00
Orbit: 573 x 592 km, 97.5° (Epoch: 14 November)

Date Brightness Start Highest point End Pass type
(mag) Time Alt. Az. Time Alt. Az. Time Alt. Az.
14 Nov ? 17:24:48 10° SSE 17:28:51 66° ENE 17:32:55 10° N visible
14 Nov ? 19:03:20 10° WSW 19:04:42 11° W 19:06:03 10° WNW visible
15 Nov ? 17:30:33 10° SSE 17:34:38 78° ENE 17:38:43 10° N visible
16 Nov ? 05:12:44 10° E 05:13:15 10° E 05:13:45 10° E visible
16 Nov ? 17:36:19 10° SSE 17:40:24 89° ESE 17:44:32 10° NNW visible
17 Nov ? 05:17:30 10° ENE 05:19:07 12° E 05:20:43 10° ESE visible
17 Nov ? 17:42:07 10° S 17:46:11 78° WSW 17:50:18 10° NNW visible
18 Nov ? 05:22:47 10° ENE 05:24:57 14° E 05:27:08 10° ESE visible
18 Nov ? 17:47:56 10° S 17:51:59 67° W 17:56:05 10° NNW visible
19 Nov ? 05:28:13 10° NE 05:30:49 16° E 05:33:24 10° SE visible
19 Nov ? 17:53:46 10° S 17:57:47 57° W 18:01:50 10° NNW visible
20 Nov ? 05:33:44 10° NE 05:36:40 18° E 05:39:34 10° SE visible
20 Nov ? 17:59:38 10° S 18:03:35 49° W 18:07:35 10° NNW visible
21 Nov ? 05:39:18 10° NE 05:42:29 21° E 05:45:40 10° SE visible
21 Nov ? 18:05:31 10° S 18:09:23 42° W 18:13:18 10° NNW visible
22 Nov ? 05:44:55 10° NE 05:48:19 24° E 05:51:43 10° SSE visible
22 Nov ? 18:11:26 10° SSW 18:15:12 36° W 18:19:00 10° NNW visible
23 Nov ? 05:50:34 10° NE 05:54:09 28° E 05:57:43 10° SSE visible
23 Nov ? 16:42:26 10° ESE 16:45:44 24° ENE 16:49:03 10° NNE visible
23 Nov ? 18:17:22 10° SSW 18:21:01 31° W 18:24:41 10° NNW visible
